This demonstration page uses our WeatherBlox Daily Observations layout. Learn more.

Left ArrowRight Arrow

44.89941, -97.11507

Hourly Observations for October 4, 2021

Temp ( °F °C ) Dew Point ( °F °C ) Humidity (%) Winds ( mph kmh ) Pressure ( in mb ) Visibility ( mi km ) Precip ( " mm )
12:53 am 00:53 Clear 48 8.9 46 7.8 93 93 N N/A 30.01 1016 9 14 N/A
1:53 am 01:53 Clear 49 9.4 45 7.2 86 86 N N/A 30.02 1017 10 16 N/A
2:53 am 02:53 Clear 48 8.9 44 6.7 86 86 N N/A 30.03 1017 10 16 N/A
3:53 am 03:53 Clear 46 7.8 43 6.1 89 89 N N/A 30.04 1017 10 16 N/A
4:53 am 04:53 Clear 45 7.2 42 5.6 90 90 SSE 3 6 30.05 1018 10 16 N/A
5:53 am 05:53 Clear 47 8.3 42 5.6 83 83 SE 3 6 30.06 1018 10 16 N/A
6:53 am 06:53 Clear 46 7.8 41 5 83 83 N N/A 30.08 1019 10 16 N/A
7:53 am 07:53 Sunny 46 7.8 41 5 83 83 N N/A 30.09 1019 10 16 N/A
8:53 am 08:53 Sunny 52 11.1 45 7.2 77 77 N N/A 30.11 1020 10 16 N/A
9:53 am 09:53 Sunny 59 15 50 10 72 72 S 5 7 30.11 1020 9 14 N/A
10:53 am 10:53 Sunny 67 19.4 51 10.6 57 57 S 6 9 30.11 1020 10 16 N/A
11:53 am 11:53 Sunny 72 22.2 46 7.8 40 40 SSW 8 13 30.11 1020 10 16 N/A
12:53 pm 12:53 Sunny 76 24.4 47 8.3 36 36 SSW 8 13 30.11 1020 10 16 N/A
1:53 pm 13:53 Sunny 78 25.6 46 7.8 32 32 VRB 5 7 30.09 1019 8 13 N/A
2:53 pm 14:53 Sunny 79 26.1 45 7.2 30 30 N N/A 30.09 1019 10 16 N/A
3:53 pm 15:53 Sunny 81 27.2 46 7.8 29 29 N N/A 30.08 1019 10 16 N/A
4:53 pm 16:53 Sunny 80 26.7 47 8.3 31 31 N N/A 30.08 1019 10 16 N/A
5:53 pm 17:53 Sunny 79 26.1 49 9.4 35 35 N N/A 30.09 1019 10 16 N/A
6:53 pm 18:53 Sunny 72 22.2 50 10 46 46 N N/A 30.10 1019 10 16 N/A
7:53 pm 19:53 Clear 67 19.4 46 7.8 47 47 N N/A 30.12 1020 10 16 N/A
8:53 pm 20:53 Clear 62 16.7 51 10.6 67 67 SE 3 6 30.12 1020 10 16 N/A
9:53 pm 21:53 Clear 61 16.1 50 10 67 67 SE 5 7 30.13 1020 10 16 N/A
10:53 pm 22:53 Clear 58 14.4 50 10 75 75 SE 3 6 30.13 1020 10 16 N/A
11:53 pm 23:53 Clear 57 13.9 49 9.4 74 74 SSE 3 6 30.14 1021 10 16 N/A

Powered by AerisWeather